F8BJE-13 Weather Reports


time (UTC)temp
F
wind
direction
speed
knots
gust
knots
rain 1hr
in
rain 24hr
in
rain mn
in
humidity
%
barometer
mb
20260507191056 54 181 0.0 0.0 0.00 0.02 0.00 66 1014.3
20260507184055 56 160 0.0 0.9 0.00 0.02 0.00 63 1014.1
20260507181056 58 135 0.0 0.9 0.00 0.03 0.00 60 1014.0
20260507174056 60 94 0.0 0.9 0.00 0.04 0.00 51 1014.1
20260507171056 60 126 0.0 0.9 0.00 0.05 0.00 51 1014.1
20260507164056 63 136 0.0 1.7 0.00 0.08 0.00 49 1014.3
20260507161055 70 133 0.9 2.6 0.00 0.08 0.00 37 1014.2
20260507154055 71 186 0.0 1.7 0.00 0.09 0.00 35 1014.3
20260507151055 69 69 0.0 3.5 0.00 0.11 0.00 39 1014.2
20260507144055 74 166 0.0 1.7 0.00 0.17 0.00 35 1014.6
20260507141055 75 0 0.0 0.0 0.00 0.38 0.00 35 1014.6
20260507134056 74 0 0.0 0.0 0.00 0.46 0.00 33 1015.0
20260507131056 71 0 0.0 0.0 0.00 0.46 0.00 33 1015.0
20260507124056 71 0 0.0 0.0 0.00 0.46 0.00 35 1015.3
20260507121059 71 0 0.0 0.0 0.00 0.00 0.00
20260507121056 71 0 0.0 0.0 0.00 0.46 0.00 37 1015.3
20260507114055 70 0 0.0 0.0 0.00 0.47 0.00 40 1015.4
20260507111056 63 0 0.0 0.0 0.00 0.48 0.00 45 1015.5
20260507104056 68 0 0.0 0.0 0.00 0.50 0.00 40 1015.5
20260507101056 64 0 0.0 0.0 0.00 0.51 0.00 53 1015.8
20260507094056 65 0 0.0 0.0 0.00 0.53 0.00 52 1015.6
20260507091056 58 0 0.0 0.0 0.00 0.54 0.00 62 1015.5
20260507084056 63 0 0.0 0.0 0.00 0.57 0.00 55 1015.4
20260507081055 64 0 0.0 0.0 0.00 0.62 0.00 54 1015.4
20260507074056 64 0 0.0 0.0 0.00 0.66 0.00 62 1015.4
20260507071055 58 0 0.0 0.0 0.00 0.66 0.00 80 1015.2
20260507064054 54 0 0.0 0.0 0.00 0.66 0.00 98 1015.1
20260507062736 51 0 0.0 0.0 0.00 0.66 0.00 98 1015.2
20260507055736 48 0 0.0 0.0 0.00 0.66 0.00 99 1015.1
20260507052735 46 0 0.0 0.0 0.00 0.66 0.00 99 1014.7
20260507045736 46 0 0.0 0.0 0.00 0.66 0.00 99 1014.4
20260507042737 47 0 0.0 0.0 0.00 0.66 0.00 99 1014.3
20260507035736 47 0 0.0 0.0 0.00 0.66 0.00 99 1014.3
20260507032735 47 0 0.0 0.0 0.00 0.66 0.00 99 1014.0
20260507025735 47 0 0.0 0.0 0.00 0.66 0.00 99 1013.9
20260507022736 47 166 0.0 0.0 0.00 0.66 0.00 99 1013.9
20260507015736 47 0 0.0 0.0 0.00 0.66 0.00 99 1013.7
20260507012737 47 0 0.0 0.0 0.00 0.66 0.00 99 1013.4
20260507005736 47 0 0.0 0.0 0.00 0.66 0.00 99 1013.5
20260507002736 47 0 0.0 0.0 0.00 0.66 0.00 99 1013.4
20260506235736 48 0 0.0 0.0 0.00 0.66 0.00 99 1013.4
20260506232735 48 181 0.0 0.0 0.00 0.66 0.00 99 1013.3
20260506225736 48 160 0.0 0.9 0.00 0.66 0.00 99 1013.2
20260506222736 48 0 0.0 0.0 0.00 0.66 0.00 99 1013.1
20260506215736 48 177 0.0 1.7 0.01 0.66 0.66 99 1012.8
20260506212736 48 181 0.0 1.7 0.01 0.66 0.66 99 1012.7
20260506205737 48 181 0.0 0.0 0.01 0.64 0.64 99 1012.6
20260506202736 48 140 0.0 1.7 0.01 0.64 0.64 98 1012.5
20260506195735 48 141 0.0 2.6 0.00 0.63 0.63 98 1012.2